TimePST,TemperatureF,Dew PointF,Humidity,Sea Level PressureIn,VisibilityMPH,Wind Direction,Wind SpeedMPH,Gust SpeedMPH,PrecipitationIn,Events,Conditions,WindDirDegrees,DateUTC
12:53 AM,39.0,33.1,79,30.01,10.0,South,16.1,-,N/A,,Overcast,190,2012-11-17 08:53:00
1:53 AM,37.9,35.1,89,29.99,10.0,SSW,13.8,-,0.00,,Overcast,210,2012-11-17 09:53:00
2:53 AM,39.0,35.1,86,29.99,10.0,SSW,9.2,-,0.00,,Overcast,210,2012-11-17 10:53:00
3:53 AM,37.9,33.1,83,30.00,10.0,SSW,6.9,-,N/A,,Mostly Cloudy,210,2012-11-17 11:53:00
4:53 AM,37.9,33.1,83,29.99,10.0,SSW,11.5,-,N/A,,Mostly Cloudy,200,2012-11-17 12:53:00
5:53 AM,37.0,33.1,86,29.99,10.0,South,16.1,-,N/A,,Mostly Cloudy,190,2012-11-17 13:53:00
6:25 AM,39.2,33.8,81,30.06,10.0,South,11.5,-,0.00,,Overcast,190,2012-11-17 14:25:00
6:45 AM,35.6,33.8,93,30.07,10.0,South,11.5,-,0.00,Rain,Light Rain,180,2012-11-17 14:45:00
6:53 AM,37.0,34.0,89,30.01,10.0,South,11.5,-,0.00,Rain,Light Rain,180,2012-11-17 14:53:00
7:01 AM,37.4,35.6,93,30.08,10.0,South,10.4,-,0.00,Rain,Light Rain,180,2012-11-17 15:01:00
7:15 AM,37.4,35.6,93,30.07,10.0,South,12.7,-,0.00,Rain,Light Rain,190,2012-11-17 15:15:00
7:53 AM,37.9,35.1,89,30.03,10.0,South,11.5,20.7,0.00,Rain,Light Rain,180,2012-11-17 15:53:00
8:53 AM,39.9,35.1,83,30.00,10.0,South,18.4,24.2,0.00,,Scattered Clouds,190,2012-11-17 16:53:00
9:53 AM,42.1,37.0,82,29.99,10.0,South,18.4,-,0.00,,Overcast,190,2012-11-17 17:53:00
10:53 AM,46.0,36.0,68,29.94,10.0,SSE,19.6,28.8,N/A,,Mostly Cloudy,150,2012-11-17 18:53:00
11:34 AM,44.6,35.6,71,30.03,10.0,SSE,17.3,23.0,0.00,Rain,Light Rain,160,2012-11-17 19:34:00
11:45 AM,44.6,35.6,71,30.02,10.0,SSE,17.3,26.5,0.00,,Overcast,150,2012-11-17 19:45:00
11:53 AM,45.0,36.0,71,29.92,10.0,SSE,20.7,27.6,0.00,Rain,Light Rain,160,2012-11-17 19:53:00
12:11 PM,46.4,35.6,66,30.02,10.0,SE,23.0,29.9,0.00,,Overcast,140,2012-11-17 20:11:00
12:29 PM,48.2,37.4,66,30.01,10.0,SSE,17.3,31.1,0.00,,Overcast,150,2012-11-17 20:29:00
12:53 PM,48.9,37.0,64,29.90,10.0,SSE,18.4,26.5,0.00,,Overcast,160,2012-11-17 20:53:00
1:53 PM,46.0,37.9,73,29.91,10.0,SSE,18.4,25.3,N/A,,Mostly Cloudy,160,2012-11-17 21:53:00
2:53 PM,45.0,37.0,74,29.91,10.0,SSE,18.4,23.0,N/A,,Mostly Cloudy,160,2012-11-17 22:53:00
3:53 PM,44.1,37.0,76,29.93,10.0,South,12.7,-,0.00,,Overcast,170,2012-11-17 23:53:00
5:53 PM,42.1,36.0,79,29.94,10.0,South,12.7,-,N/A,,Mostly Cloudy,170,2012-11-18 01:53:00
6:53 PM,41.0,35.1,79,29.94,10.0,SSW,6.9,-,N/A,,Scattered Clouds,200,2012-11-18 02:53:00
7:53 PM,39.9,35.1,83,29.95,10.0,South,5.8,-,N/A,,Mostly Cloudy,170,2012-11-18 03:53:00
8:53 PM,41.0,36.0,82,29.94,10.0,SSW,8.1,-,N/A,,Mostly Cloudy,210,2012-11-18 04:53:00
9:53 PM,39.9,35.1,83,29.94,10.0,South,12.7,-,N/A,,Partly Cloudy,190,2012-11-18 05:53:00
10:53 PM,43.0,35.1,74,29.90,10.0,South,11.5,-,N/A,,Mostly Cloudy,180,2012-11-18 06:53:00
11:53 PM,43.0,34.0,71,29.90,10.0,South,12.7,19.6,N/A,,Overcast,170,2012-11-18 07:53:00